Location: Dalton
(34.7700°N, 84.9700°W)
Time: 01:14:58
(UTC-04:00)

Vanguard 2 Rocket - All Passes

Search period start: 20 April 2018 00:00
Search period end: 30 April 2018 00:00
Orbit: 553 x 3328 km, 32.9° (Epoch: 19 April)

Date Brightness Start Highest point End Pass type
(mag) Time Alt. Az. Time Alt. Az. Time Alt. Az.
20 Apr - 02:53:15 10° SSE 03:02:13 18° SE 03:13:04 10° E visible
20 Apr - 05:01:24 10° SW 05:16:59 51° SE 05:36:02 10° E visible
20 Apr - 07:15:37 10° WSW 07:34:56 79° SSE 07:53:49 10° E daylight
20 Apr - 09:33:22 10° W 09:54:06 83° S 10:09:31 10° ESE daylight
20 Apr - 11:52:58 10° W 12:11:16 58° SSW 12:22:47 10° SE daylight
20 Apr - 14:15:01 10° W 14:24:43 21° SW 14:31:44 10° S daylight
21 Apr - 04:02:28 10° SSW 04:15:52 39° SE 04:33:23 10° E visible
21 Apr - 06:14:55 10° WSW 06:32:38 71° SSE 06:52:28 10° E visible
21 Apr - 08:31:22 10° W 08:51:48 85° S 09:09:09 10° E daylight
21 Apr - 10:50:13 10° W 11:10:10 70° SSW 11:23:36 10° ESE daylight
21 Apr - 13:10:54 10° W 13:25:07 33° SW 13:34:35 10° SSE daylight
22 Apr - 03:04:27 10° S 03:15:22 28° SE 03:29:47 10° E visible
22 Apr - 05:14:54 10° SW 05:30:42 62° SSE 05:50:37 10° E visible
22 Apr - 07:29:55 10° WSW 07:49:18 83° S 08:08:18 10° E daylight
22 Apr - 09:47:50 10° W 10:08:27 78° SSW 10:23:52 10° ESE daylight
22 Apr - 12:07:33 10° W 12:24:57 46° SW 12:36:24 10° SSE daylight
22 Apr - 14:32:56 10° WSW 14:37:49 12° SW 14:42:01 10° SSW daylight
23 Apr - 02:07:58 10° SSE 02:15:23 17° SE 02:24:34 10° E visible
23 Apr - 04:15:33 10° SW 04:29:20 50° SE 04:48:13 10° ENE visible
23 Apr - 06:29:03 10° WSW 06:46:50 79° SSE 07:06:56 10° E visible
23 Apr - 08:45:51 10° W 09:06:14 83° S 09:23:36 10° ESE daylight
23 Apr - 11:04:42 10° WNW 11:24:07 59° SSW 11:37:31 10° SE daylight
23 Apr - 13:26:33 10° W 13:38:20 23° SW 13:46:57 10° S daylight
24 Apr - 03:16:55 10° SSW 03:28:36 38° SE 03:45:12 10° E visible
24 Apr - 05:28:48 10° WSW 05:44:41 72° SSE 06:05:05 10° E visible
24 Apr - 07:44:21 10° W 08:03:44 85° S 08:22:47 10° E daylight
24 Apr - 10:02:17 10° W 10:22:37 70° SSW 10:38:01 10° ESE daylight
24 Apr - 12:22:28 10° W 12:38:21 35° SW 12:49:29 10° SSE daylight
25 Apr - 02:19:12 10° S 02:28:29 26° SE 02:41:23 10° E visible
25 Apr - 04:29:10 10° SW 04:43:03 62° SSE 05:02:46 10° E visible
25 Apr - 06:43:24 10° WSW 07:01:11 84° S 07:21:24 10° E daylight
25 Apr - 09:00:19 10° W 09:20:34 78° SSW 09:37:55 10° ESE daylight
25 Apr - 11:19:17 10° WNW 11:37:46 48° SW 11:51:03 10° SSE daylight
25 Apr - 13:44:00 10° W 13:51:24 14° SW 13:57:35 10° SSW daylight
26 Apr - 01:23:13 10° SSE 01:28:53 15° SE 01:35:53 10° E visible
26 Apr - 03:30:08 10° SW 03:42:02 49° SE 04:00:01 10° ENE visible
26 Apr - 05:43:00 10° WSW 05:58:53 79° SSE 06:19:32 10° E visible
26 Apr - 07:58:50 10° W 08:18:10 83° S 08:37:12 10° ESE daylight
26 Apr - 10:16:45 10° WNW 10:36:32 59° SSW 10:51:52 10° SE daylight
26 Apr - 12:38:06 10° W 12:51:32 25° SW 13:01:46 10° S daylight
27 Apr - 02:31:46 10° SSW 02:41:43 36° SE 02:56:47 10° E visible
27 Apr - 04:43:08 10° WSW 04:57:02 72° SSE 05:17:13 10° E visible
27 Apr - 06:57:51 10° W 07:15:38 85° S 07:35:52 10° E daylight
27 Apr - 09:14:47 10° W 09:34:43 69° SSW 09:52:00 10° ESE daylight
27 Apr - 11:34:13 10° W 11:51:09 36° SW 12:04:01 10° SSE daylight
28 Apr - 01:34:19 10° S 01:42:00 23° SE 01:52:54 10° E visible
28 Apr - 03:43:49 10° SW 03:55:47 61° SSE 04:14:33 10° E visible
28 Apr - 05:57:22 10° W 06:13:15 84° S 06:34:00 10° E visible
28 Apr - 08:13:19 10° W 08:32:29 77° SSW 08:51:28 10° ESE daylight
28 Apr - 10:31:22 10° W 10:50:11 48° SW 11:05:16 10° SSE daylight
28 Apr - 12:55:20 10° W 13:04:38 16° SW 13:12:29 10° SSW daylight
29 Apr - 00:39:04 10° SSE 00:42:44 12° SE 00:47:03 10° ESE visible
29 Apr - 02:45:04 10° SW 02:55:12 48° SE 03:11:36 10° E visible
29 Apr - 04:57:22 10° WSW 05:11:15 80° SSE 05:31:39 10° E visible
29 Apr - 07:12:20 10° W 07:30:03 82° S 07:50:15 10° ESE daylight
29 Apr - 09:29:16 10° W 09:48:38 59° SSW 10:05:44 10° SE daylight
29 Apr - 11:49:51 10° W 12:04:23 26° SW 12:16:10 10° S daylight
